Tracking 22287 objects as of 27-Jan-2021
HD Live streaming from Space Station
objects crossing your sky now

COSMOS 2222

Track COSMOS 2222 now!
COSMOS 2222 is classified as:


NORAD ID: 22238
Int'l Code: 1992-081A
Perigee: 909.6 km
Apogee: 39,489.8 km
Inclination: 63.4 °
Period: 718.4 minutes
Semi major axis: 26570 km
RCS: 13.6381 m2 (large)
Launch date: November 25, 1992
Source: Commonwealth of Independent States (former USSR) (CIS)
Launch site: PLESETSK MISSILE AND SPACE COMPLEX (PKMTR)
aabbcc
Your satellite tracking list
Your tracking list is empty




NASA's NSSDC Master Catalog

Two Line Element Set (TLE):
1 22238U 92081A   21026.96885598 -.00001233  00000-0 -29374-2 0  9994
2 22238  63.3583  12.5889 7259926 201.0267  98.5046  2.00446921206411
Source of the keplerian elements: AFSPC